DW7572 Weather Reports


time (UTC)temp
C
wind
direction
speed
KPH
gust
KPH
rain 1hr
cm
rain 24hr
cm
rain mn
cm
humidity
%
barometer
mb
20260906095538 20 135 3.2 6.4 0.00 0.00 0.00 98 1017.4
20260906094517 20 135 3.2 6.4 0.00 0.00 0.00 97 1017.2
20260906093517 21 135 4.8 9.7 0.00 0.00 0.00 97 1017.1
20260906092518 21 158 4.8 9.7 0.00 0.00 0.00 97 1017.0
20260906091517 21 158 6.4 9.7 0.00 0.00 0.00 97 1017.0
20260906090517 21 135 6.4 12.9 0.00 0.00 0.00 97 1016.9
20260906085517 21 158 6.4 11.3 0.00 0.00 0.00 97 1016.9
20260906084517 21 135 6.4 12.9 0.00 0.00 0.00 97 1017.1
20260906083517 21 158 6.4 16.1 0.00 0.00 0.00 97 1017.0
20260906082517 21 135 8.0 14.5 0.00 0.00 0.00 97 1017.2
20260906081518 21 158 6.4 11.3 0.00 0.00 0.00 97 1017.2
20260906080517 21 158 6.4 14.5 0.00 0.00 0.00 97 1017.1
20260906075517 21 135 4.8 8.0 0.00 0.00 0.00 97 1016.9
20260906074516 21 113 4.8 8.0 0.00 0.00 0.00 97 1016.9
20260906073537 21 135 6.4 14.5 0.00 0.00 0.00 97 1017.0
20260906072516 21 135 8.0 14.5 0.00 0.00 0.00 97 1017.2
20260906071536 21 135 8.0 16.1 0.00 0.00 0.00 97 1017.1
20260906070537 21 113 9.7 17.7 0.00 0.00 0.00 97 1017.1
20260906065537 21 113 4.8 11.3 0.00 0.00 0.00 97 1017.0
20260906064556 21 135 6.4 12.9 0.00 0.00 0.00 97 1016.9
20260906063517 21 135 9.7 19.3 0.00 0.00 0.00 97 1016.8
20260906062516 21 135 8.0 16.1 0.00 0.00 0.00 97 1017.0
20260906061516 21 113 8.0 12.9 0.00 0.00 0.00 97 1017.1
20260906060516 21 113 6.4 12.9 0.00 0.00 0.00 97 1017.2
20260906055516 21 113 6.4 12.9 0.00 0.00 0.00 97 1017.0
20260906054517 21 113 6.4 12.9 0.00 0.00 0.00 97 1017.2
20260906053516 21 90 6.4 12.9 0.00 0.00 0.00 97 1017.2
20260906052516 21 113 4.8 9.7 0.00 0.00 0.00 97 1017.4
20260906051516 21 90 8.0 12.9 0.00 0.00 0.00 97 1017.2
20260906050537 21 113 6.4 12.9 0.00 0.00 0.00 96 1016.9
20260906045518 22 113 6.4 11.3 0.00 0.00 0.00 96 1017.1
20260906044517 22 90 6.4 12.9 0.00 0.00 0.00 96 1016.9
20260906043518 22 113 6.4 14.5 0.00 0.00 0.00 96 1016.9
20260906042517 22 90 4.8 11.3 0.00 0.00 0.00 96 1016.8
20260906041558 22 113 8.0 12.9 0.00 0.00 0.00 96 1016.8
20260906040515 22 113 8.0 16.1 0.00 0.00 0.00 96 1016.7
20260906035517 22 113 6.4 12.9 0.00 0.00 0.00 95 1016.6
20260906034517 22 113 6.4 11.3 0.00 0.00 0.00 95 1016.6
20260906033518 22 90 4.8 9.7 0.00 0.00 0.00 95 1016.6
20260906032518 22 113 4.8 11.3 0.00 0.00 0.00 95 1016.7
20260906031517 22 113 8.0 14.5 0.00 0.00 0.00 94 1016.7
20260906030517 22 113 6.4 11.3 0.00 0.00 0.00 94 1016.8
20260906025517 23 113 6.4 11.3 0.00 0.00 0.00 93 1016.9
20260906024517 23 113 6.4 14.5 0.00 0.00 0.00 93 1017.0
20260906023518 23 135 6.4 11.3 0.00 0.00 0.00 93 1017.0
20260906022517 23 135 8.0 12.9 0.00 0.00 0.00 92 1016.9
20260906021517 23 113 8.0 12.9 0.00 0.00 0.00 92 1016.8
20260906020518 23 113 8.0 16.1 0.00 0.00 0.00 93 1016.7
20260906015517 23 135 4.8 11.3 0.00 0.00 0.00 94 1016.5
20260906014517 23 113 3.2 6.4 0.00 0.00 0.00 94 1016.5
20260906013517 23 113 3.2 9.7 0.00 0.00 0.00 94 1016.3
20260906012518 23 113 3.2 11.3 0.00 0.00 0.00 93 1016.0
20260906011517 23 113 4.8 6.4 0.00 0.00 0.00 93 1015.9
20260906010517 24 113 3.2 9.7 0.00 0.00 0.00 92 1015.8
20260906005517 24 113 3.2 6.4 0.00 0.00 0.00 92 1015.8
20260906004517 25 113 3.2 4.8 0.00 0.00 0.00 91 1015.8
20260906003558 25 113 3.2 6.4 0.00 0.00 0.00 90 1015.8
20260906002517 25 113 3.2 4.8 0.00 0.00 0.00 88 1015.9
20260906001517 25 113 3.2 6.4 0.00 0.00 0.00 87 1015.8
20260906000517 25 113 6.4 11.3 0.00 0.00 0.00 86 1015.8
20260905235537 26 113 8.0 16.1 0.00 0.00 0.00 86 1015.8
20260905234517 26 113 8.0 14.5 0.00 0.00 0.00 86 1015.8
20260905233517 26 135 8.0 14.5 0.00 0.00 0.00 87 1015.8
20260905232517 26 135 9.7 17.7 0.00 0.00 0.00 87 1015.7
20260905231517 26 158 9.7 16.1 0.00 0.00 0.00 88 1015.8
20260905230516 26 158 9.7 17.7 0.00 0.00 0.00 87 1015.6
20260905225516 26 135 11.3 16.1 0.00 0.00 0.00 87 1015.5
20260905224517 27 135 11.3 17.7 0.00 0.00 0.00 86 1015.5
20260905223517 27 135 11.3 17.7 0.00 0.00 0.00 86 1015.4
20260905222537 27 135 9.7 16.1 0.00 0.00 0.00 86 1015.4
20260905221516 27 135 6.4 14.5 0.00 0.00 0.00 84 1015.4
20260905220516 27 113 11.3 20.9 0.00 0.00 0.00 85 1015.3
20260905215517 27 113 11.3 16.1 0.00 0.00 0.00 85 1015.2
20260905214537 27 113 12.9 19.3 0.00 0.00 0.00 84 1015.0
20260905213516 27 113 11.3 19.3 0.00 0.00 0.00 86 1015.2
20260905212516 27 113 11.3 19.3 0.00 0.00 0.00 86 1015.0
20260905211536 27 113 11.3 17.7 0.00 0.00 0.00 86 1015.2
20260905210517 26 113 9.7 16.1 0.00 0.00 0.00 87 1015.4
20260905205516 26 113 9.7 20.9 0.00 0.00 0.00 87 1015.5
20260905204516 27 90 9.7 17.7 0.00 0.00 0.00 86 1015.3
20260905203536 27 90 12.9 19.3 0.00 0.00 0.00 85 1015.5
20260905202537 26 90 11.3 19.3 0.00 0.00 0.00 87 1015.4
20260905201516 26 90 14.5 22.5 0.00 0.00 0.00 86 1015.4
20260905200516 26 90 11.3 16.1 0.00 0.00 0.00 86 1015.5
20260905195517 26 90 11.3 17.7 0.00 0.00 0.00 87 1015.6
20260905194516 26 90 14.5 22.5 0.00 0.00 0.00 85 1015.3
20260905193537 26 90 14.5 20.9 0.00 0.00 0.00 85 1015.5
20260905192516 26 90 11.3 17.7 0.00 0.00 0.00 86 1015.5
20260905191537 26 90 14.5 24.1 0.00 0.00 0.00 86 1015.6
20260905190516 26 90 14.5 22.5 0.00 0.00 0.00 85 1015.6
20260905185516 26 68 14.5 20.9 0.00 0.00 0.00 87 1015.7
20260905184517 26 68 16.1 27.4 0.00 0.00 0.00 87 1015.6
20260905183517 25 45 4.8 12.9 0.00 0.00 0.00 88 1015.9
20260905182516 25 90 16.1 25.7 0.00 0.00 0.00 90 1015.6
20260905181516 24 68 11.3 19.3 0.00 0.00 0.00 91 1015.8
20260905180537 23 90 12.9 20.9 0.00 0.00 0.00 92 1016.1
20260905175516 23 68 12.9 19.3 0.00 0.00 0.00 93 1015.9
20260905174516 23 68 14.5 22.5 0.00 0.00 0.00 94 1015.9
20260905173516 23 68 12.9 19.3 0.00 0.00 0.00 95 1016.4
20260905172516 23 68 12.9 19.3 0.00 0.00 0.00 96 1016.6
20260905171517 22 68 17.7 24.1 0.00 0.00 0.00 96 1016.6
20260905170516 22 68 17.7 27.4 0.00 0.00 0.00 97 1016.8
20260905165516 22 68 14.5 22.5 0.00 0.00 0.00 97 1017.0
20260905164516 22 68 9.7 17.7 0.00 0.00 0.00 98 1016.9
20260905163516 22 90 9.7 14.5 0.00 0.00 0.00 98 1017.2
20260905162516 21 90 9.7 16.1 0.00 0.00 0.00 98 1017.1
20260905161516 21 113 8.0 16.1 0.00 0.00 0.00 98 1017.3
20260905160516 21 90 6.4 12.9 0.00 0.00 0.00 99 1017.3
20260905155516 21 113 6.4 12.9 0.00 0.00 0.00 99 1017.6
20260905154516 21 135 3.2 6.4 0.00 0.00 0.00 98 1017.8
20260905153516 20 135 3.2 6.4 0.00 0.00 0.00 99 1017.9
20260905152515 20 135 3.2 4.8 0.00 0.00 0.00 98 1017.9
20260905151515 20 23 3.2 6.4 0.00 0.00 0.00 98 1017.6
20260905150516 20 23 1.6 3.2 0.00 0.00 0.00 98 1017.4
20260905145515 20 0.0 3.2 0.00 0.00 0.00 98 1017.8
20260905144516 20 0.0 3.2 0.00 0.00 0.00 98 1017.7
20260905143515 20 23 3.2 6.4 0.00 0.00 0.00 98 1017.2
20260905142536 20 23 4.8 6.4 0.00 0.00 0.00 98 1017.0
20260905141536 20 23 4.8 6.4 0.00 0.00 0.00 98 1017.0
20260905140516 20 23 4.8 8.0 0.00 0.00 0.00 98 1017.0
20260905135516 20 68 1.6 4.8 0.00 0.00 0.00 98 1017.1
20260905134516 20 90 6.4 12.9 0.00 0.00 0.00 98 1016.6
20260905133515 20 90 6.4 12.9 0.00 0.00 0.00 98 1016.4
20260905132517 20 90 4.8 12.9 0.00 0.00 0.00 98 1016.4
20260905131517 20 90 6.4 12.9 0.00 0.00 0.00 98 1016.3
20260905130518 20 68 9.7 16.1 0.00 0.00 0.00 98 1016.3
20260905125517 20 68 6.4 9.7 0.00 0.00 0.00 98 1016.4
20260905124518 20 68 8.0 14.5 0.00 0.00 0.00 98 1016.4
20260905123517 19 45 6.4 8.0 0.00 0.00 0.00 98 1016.3
20260905122517 19 45 4.8 6.4 0.00 0.00 0.00 98 1016.5
20260905121538 19 45 4.8 6.4 0.00 0.00 0.00 98 1016.1
20260905120517 19 45 4.8 9.7 0.00 0.00 0.00 98 1015.6
20260905115518 19 68 4.8 9.7 0.00 0.00 0.00 98 1015.5
20260905114517 19 68 4.8 8.0 0.00 0.00 0.00 98 1015.6
20260905113517 19 68 4.8 8.0 0.00 0.00 0.00 98 1015.6
20260905112518 19 68 4.8 8.0 0.00 0.00 0.00 98 1015.7
20260905111518 19 68 3.2 4.8 0.00 0.00 0.00 98 1015.5
20260905110517 19 68 3.2 4.8 0.00 0.00 0.00 98 1015.5
20260905105517 19 68 4.8 8.0 0.00 0.00 0.00 98 1015.3
20260905104518 19 68 6.4 9.7 0.00 0.00 0.00 98 1015.1
20260905103517 19 68 6.4 8.0 0.00 0.00 0.00 98 1015.1
20260905102518 19 45 6.4 8.0 0.00 0.00 0.00 98 1015.1
20260905101517 19 68 4.8 8.0 0.00 0.00 0.00 97 1015.0
20260905100537 19 68 6.4 9.7 0.00 0.00 0.00 97 1015.0